Regional Weather Roundup
Issued by NWS

Home | Current Version | Previous Version | Text Only | Print | Product List | Glossary Off
Versions: 1 2 3 4 5 6 7 8 9 10 11 12 13 14 15 16 17 18 19 20 21 22 23 24 25 26 27 28 29 30 31 32 33 34 35 36 37 38 39 40 41 42 43 44 45 46 47 48 49 50

000
ASUS43 KLSX 030607
RWRMO

WEATHER SUMMARY FOR MISSOURI
NATIONAL WEATHER SERVICE SPRINGFIELD MO
1200 AM CST SAT DEC 03 2016

NOTE: "FAIR" INDICATES FEW OR NO CLOUDS BELOW 12,000 FEET WITH NO
       SIGNIFICANT WEATHER AND/OR OBSTRUCTIONS TO VISIBILITY.
       CURRENT SKY AND/OR WEATHER CONDITIONS ARE NOT AVAILABLE FOR
       CHILLICOTHE AND FARMINGTON.

MOZ001>031-035>038-043-044-053-054-030700-
...NORTHERN AND WESTERN MISSOURI...

CITY           SKY/WX    TMP DP  RH WIND       PRES   REMARKS
KANSAS CTY INT NOT AVBL
KANSAS C DTWN  PTCLDY    32  28  85 CALM      30.37R
6HR MIN TEMP:  32; 6HR MAX TEMP:  44;

CHILLICOTHE      N/A     26  24  92 CALM      30.39R
6HR MIN TEMP:  26; 6HR MAX TEMP:  34;

KIRKSVILLE     PTCLDY    24  22  91 CALM      30.37R
6HR MIN TEMP:  23; 6HR MAX TEMP:  34;


$$
MOZ066>068-077>081-088>096-101>105-030700-
...SOUTHWEST MISSOURI...

CITY           SKY/WX    TMP DP  RH WIND       PRES   REMARKS
SPRINGFIELD    CLOUDY    46  25  43 E7        30.29S
6HR MIN TEMP:  45; 6HR MAX TEMP:  50;

JOPLIN         CLOUDY    47  27  45 E7        30.30
6HR MIN TEMP:  46; 6HR MAX TEMP:  52;

BRANSON          N/A     45  32  61 E3        30.30S

$$
MOZ032>034-039>042-045>050-055>058-069>072-030700-
...CENTRAL MISSOURI...

CITY           SKY/WX    TMP DP  RH WIND       PRES   REMARKS
COLUMBIA       PTCLDY    33  27  78 SE5       30.36S WCI  29
6HR MIN TEMP:  32; 6HR MAX TEMP:  41;

WHITEMAN AFB   PTCLDY    30  27  89 CALM      30.35S
WARRENSBURG    CLEAR     30  27  86 NW3       30.36S
OSAGE BEACH    PTCLDY    37  25  61 NE5       30.35S

$$
MOZ051-052-059>065-030700-
...EAST CENTRAL MISSOURI...

CITY           SKY/WX    TMP DP  RH WIND       PRES   REMARKS
ST LOUIS INTL  PTCLDY    35  28  75 CALM      30.38R
6HR MIN TEMP:  33; 6HR MAX TEMP:  42;

SPIRIT OF STL  PTCLDY    28  26  92 CALM      30.37R
6HR MIN TEMP:  26; 6HR MAX TEMP:  36;

ST CHARLES     CLEAR     31  30  96 CALM      30.38R FOG
6HR MIN TEMP:  30; 6HR MAX TEMP:  37;


$$
MOZ072>076-082>087-097>100-106>115-030700-
...SOUTH CENTRAL AND SOUTHEAST MISSOURI...

CITY           SKY/WX    TMP DP  RH WIND       PRES   REMARKS
CAPE GIRARDEAU MOCLDY    36  31  82 E6        30.35S
6HR MIN TEMP:  33; 6HR MAX TEMP:  44;

FARMINGTON     PTCLDY    29  27  92 CALM      30.36R
6HR MIN TEMP:  28; 6HR MAX TEMP:  42;


$$


USA.gov is the U.S. government's official web portal to all federal, state and local government web resources and services.